Weather History for Fort Benning, GA

Change the Weather History Date:

Tuesday, January 8, 2013

  Actual Average Record
Temperature  
Mean Temperature 48 °F -  
Max Temperature 63 °F 57 °F 73 °F (2008)
Min Temperature 34 °F 32 °F 13 °F (2014)
Degree Days  
Heating Degree Days 16    
Moisture  
Dew Point 41 °F    
Average Humidity 74    
Maximum Humidity 94    
Minimum Humidity 55    
Precipitation  
Precipitation 0.00 in - - ()
Sea Level Pressure  
Sea Level Pressure 30.29 in    
Wind  
Wind Speed 5 mph (NNE)    
Max Wind Speed 8 mph    
Max Gust Speed -    
Visibility 10 miles    
Events      
Averages and records for this station are not official NWS values.
T = Trace of Precipitation, MM = Missing Value Source: NWS Daily Summary

Daily Weather History Graph

Daily Weather History Graph

Search for Another Location

Airport:

Trip Planner

Search our weather history database for the weather conditions in past years. The results will help you decide how hot, cold, wet, or windy it might be!

Date:

Astronomy

Jan. 08, 2013 Rise Set
Actual Time 7:42 AM EST 5:51 PM EST
Civil Twilight 7:15 AM EST 6:18 PM EST
Nautical Twilight 6:44 AM EST 6:48 PM EST
Astronomical Twilight 6:15 AM EST 7:18 PM EST
Moon 4:15 AM EST (1/8) 2:52 PM EST (1/8)
Length of Visible Light 11h 03m
Length of Day
10h 09m
Waning Crescent, 14% of the Moon is Illuminated
Jan 8
Waning Crescent
Jan 11
New
Jan 18
First Quarter
Jan 26
Full
Feb 3
Last Quarter

Hourly Weather History & Observations

Time (EST) Temp. Windchill Dew Point Humidity Pressure Visibility Wind Dir Wind Speed Gust Speed Precip Events Conditions
12:46 AM 35.6 °F 30.7 °F 33.8 °F 93% 30.29 in 10.0 mi North 5.8 mph - N/A   Scattered Clouds
12:50 AM 35.6 °F 30.7 °F 33.8 °F 93% 30.29 in 10.0 mi North 5.8 mph - N/A   Mostly Cloudy
12:55 AM 34.7 °F 30.6 °F 33.3 °F 94% 30.29 in 10.0 mi North 4.6 mph - N/A   Scattered Clouds
12:56 AM 35.6 °F 31.7 °F 33.8 °F 93% 30.29 in 10.0 mi North 4.6 mph - N/A   Mostly Cloudy
12:59 AM 35.6 °F 30.7 °F 33.8 °F 93% 30.29 in 10.0 mi North 5.8 mph - N/A   Scattered Clouds
1:01 AM 35.6 °F 30.7 °F 33.8 °F 93% 30.29 in 10.0 mi North 5.8 mph - N/A   Mostly Cloudy
1:23 AM 37.4 °F 33.8 °F 33.8 °F 87% 30.28 in 10.0 mi North 4.6 mph - N/A   Scattered Clouds
1:25 AM 37.4 °F 33.8 °F 33.8 °F 87% 30.28 in 10.0 mi North 4.6 mph - N/A   Mostly Cloudy
1:53 AM 37.4 °F 33.8 °F 33.8 °F 87% 30.28 in 10.0 mi North 4.6 mph - N/A   Scattered Clouds
1:55 AM 37.9 °F 34.4 °F 34.0 °F 86% 30.28 in 10.0 mi North 4.6 mph - N/A   Scattered Clouds
2:55 AM 35.8 °F 31.9 °F 33.6 °F 92% 30.28 in 10.0 mi North 4.6 mph - N/A   Clear
3:55 AM 36.0 °F 32.1 °F 34.0 °F 93% 30.28 in 10.0 mi North 4.6 mph - N/A   Clear
4:55 AM 36.9 °F 33.1 °F 34.2 °F 90% 30.27 in 10.0 mi North 4.6 mph - N/A   Mostly Cloudy
5:55 AM 40.3 °F 35.5 °F 37.2 °F 89% 30.28 in 10.0 mi NNE 6.9 mph - N/A   Overcast
6:55 AM 40.5 °F 36.5 °F 37.2 °F 88% 30.29 in 10.0 mi NNE 5.8 mph - N/A   Overcast
7:55 AM 41.0 °F 37.1 °F 38.1 °F 89% 30.32 in 10.0 mi North 5.8 mph - N/A   Overcast
8:55 AM 45.5 °F 42.5 °F 37.6 °F 74% 30.35 in 10.0 mi NNE 5.8 mph - N/A   Scattered Clouds
9:37 AM 50.0 °F - 37.4 °F 62% 30.35 in 10.0 mi NNE 5.8 mph - N/A   Overcast
9:55 AM 49.6 °F - 37.2 °F 62% 30.35 in 10.0 mi ENE 5.8 mph - N/A   Overcast
10:55 AM 51.6 °F - 39.6 °F 63% 30.36 in 10.0 mi Variable 3.5 mph - N/A   Overcast
11:49 AM 55.4 °F - 41.0 °F 58% 30.33 in 10.0 mi NE 8.1 mph - N/A   Mostly Cloudy
11:55 AM 55.8 °F - 42.3 °F 60% 30.32 in 10.0 mi NNE 6.9 mph - N/A   Scattered Clouds
12:43 PM 59.0 °F - 42.8 °F 55% 30.29 in 10.0 mi ENE 8.1 mph - N/A   Mostly Cloudy
12:55 PM 59.5 °F - 44.2 °F 57% 30.28 in 10.0 mi ENE 5.8 mph - N/A   Mostly Cloudy
1:55 PM 61.2 °F - 46.6 °F 59% 30.27 in 10.0 mi NNE 3.5 mph - N/A   Overcast
2:13 PM 62.6 °F - 48.2 °F 59% 30.26 in 10.0 mi Variable 5.8 mph - N/A   Overcast
2:34 PM 60.8 °F - 46.4 °F 59% 30.27 in 10.0 mi North 4.6 mph - N/A   Overcast
2:55 PM 62.2 °F - 47.1 °F 58% 30.26 in 10.0 mi North 6.9 mph - N/A   Overcast
3:55 PM 63.1 °F - 47.7 °F 57% 30.26 in 10.0 mi North 5.8 mph - N/A   Overcast
4:10 PM 62.6 °F - 48.2 °F 59% 30.26 in 10.0 mi North 3.5 mph - N/A   Overcast
4:55 PM 62.8 °F - 48.0 °F 59% 30.25 in 10.0 mi NE 6.9 mph - N/A   Overcast
5:53 PM 59.0 °F - 48.2 °F 67% 30.26 in 10.0 mi Calm Calm - N/A   Mostly Cloudy
5:55 PM 59.5 °F - 47.7 °F 65% 30.27 in 10.0 mi Calm Calm - N/A   Mostly Cloudy
5:57 PM 59.0 °F - 48.2 °F 67% 30.27 in 10.0 mi Calm Calm - N/A   Mostly Cloudy
6:55 PM 58.8 °F - 48.0 °F 67% 30.28 in 10.0 mi Calm Calm - N/A   Overcast
7:55 PM 59.0 °F - 48.6 °F 68% 30.28 in 10.0 mi East 3.5 mph - N/A   Overcast
8:55 PM 57.9 °F - 47.7 °F 69% 30.29 in 10.0 mi ENE 3.5 mph - N/A   Overcast
9:55 PM 57.2 °F - 47.3 °F 69% 30.30 in 10.0 mi ENE 3.5 mph - N/A   Overcast
10:55 PM 55.9 °F - 46.9 °F 72% 30.29 in 10.0 mi East 3.5 mph - N/A   Partly Cloudy
11:03 PM 55.4 °F - 46.4 °F 72% 30.29 in 10.0 mi East 4.6 mph - N/A   Mostly Cloudy
11:55 PM 56.3 °F - 47.1 °F 71% 30.30 in 10.0 mi ENE 4.6 mph - N/A   Overcast
11:57 PM 57.2 °F - 46.4 °F 67% 30.30 in 10.0 mi Variable 3.5 mph - N/A   Overcast